User: anonymous   Login
Location: Caltech
(34.1382°N, 118.1253°W)
Time: 05:15:09
(UTC-07:00)
Language:

Cosmos 2237 Rocket - Orbit

View from above orbital plane
View from above orbital plane
View from above satellite
View from above satellite

Ground track
Ground track

The orbit data is extracted from the following two-line orbital elements,

1 22566U 93016B   17172.87263219 -.00000013 +00000-0 +18125-4 0  9992
2 22566 071.0077 057.0919 0008855 134.9920 225.1921 14.14944806251922
Epoch (UTC): 21 June 2017 20:56:35
Eccentricity: 0.0008855
inclination: 71.0077°
perigee height: 836 km
apogee height: 849 km
right ascension of ascending node: 57.0919°
argument of perigee: 134.9920°
revolutions per day: 14.14944806
mean anomaly at epoch: 225.1921°
orbit number at epoch: 25192

The dashed part of the orbit path shows where the satellite is in the earth's shadow,  

DLR